Weather Roundup
Issued by NWS

Home | Current Version | Previous Version | Text Only | Print | Product List | Glossary On
Versions: 1 2 3 4 5 6 7 8 9 10 11 12 13 14 15 16 17 18 19 20 21 22 23 24 25 26 27 28 29 30 31 32 33 34 35 36 37 38 39 40 41 42 43 44 45 46 47 48 49 50
933
NZUS93 KARX 071110
HRRWXR

CURRENT HOURLY OBSERVATIONS ACROSS
MUCH OF THE UPPER MISSISSIPPI VALLEY
NATIONAL WEATHER SERVICE LA CROSSE WI
500 AM CST WED DEC 07 2016


...SOUTHEAST MINNESOTA...


CITY           SKY/WX    TMP DP  RH WIND       PRES   REMARKS
ROCHESTER      FLURRIES  14   9  80 W21       29.96R WCI  -4
ROCHESTER/MAYO CLOUDY    15  11  81 W20G28    29.97R WCI  -2
WINONA         CLOUDY    19  12  73 W9        30.01R WCI   9
AUSTIN         MOCLDY    14   9  79 W14       30.00R WCI  -1
ALBERT LEA     PTCLDY    18  10  73 W14G22    30.01R WCI   4
DODGE CENTER   FLURRIES  14   9  79 W22G31    29.96R WCI  -4
PRESTON        LGT SNOW  13   8  81 W14       29.99R WCI  -2
OWATONNA       FLURRIES  16   9  73 W20G28    30.00R WCI  -1
FARIBAULT      FLURRIES  16  10  79 W17G26    29.99S WCI   0
$$

...ELSEWHERE IN MINNESOTA...


CITY           SKY/WX    TMP DP  RH WIND       PRES   REMARKS
MINNEAPOLIS    FLURRIES  17   8  67 W18G28    29.95R WCI   1
INTNL FALLS    HVY SNOW  23  20  88 W10       29.53R VSB 1/4 WCI  12
DULUTH         FLURRIES  16  11  80 W24G31    29.63R WCI  -2
RED WING       CLOUDY    18   9  68 W20G25    29.96R WCI   1
REDWOOD FALLS  CLEAR     13   4  67 W20       30.03R WCI  -5
MANKATO        FLURRIES  13   7  77 W20G29    30.02R WCI  -5
WORTHINGTON    CLEAR      8   3  80 W18       30.07R WCI -11
FAIRMONT       CLEAR     12   6  77 W21G26    30.06R WCI  -7
$$

...SOUTHWEST WISCONSIN...


CITY           SKY/WX    TMP DP  RH WIND       PRES   REMARKS
LA CROSSE      CLOUDY    19  10  68 W9        30.00R WCI   8
PRAIRIE DU CHI CLOUDY    19  10  67 W9        30.07R WCI   8
BOSCOBEL       CLOUDY    21  12  68 W10       30.04R WCI  10
LONE ROCK      MOCLDY    20  12  71 W16G24    30.02R WCI   6
PLATTEVILLE    CLOUDY    20  16  84 W16G24    30.03S WCI   6
FORT MC COY    MOCLDY    18  12  78 SW10G17   29.95S WCI   6
CAMP DOUGLAS   CLEAR     18  11  76 SW14      29.92S WCI   4
MAUSTON-NEW LI SUNNY     19  13  75 SW13G23   29.93S WCI   6
VIROQUA        PTSUNNY   15  10  82 W21       29.96R WCI  -3
WIS DELLS      PTCLDY    19  13  76 W15       29.94S WCI   5
$$

...ELSEWHERE IN WISCONSIN...


CITY           SKY/WX    TMP DP  RH WIND       PRES   REMARKS
MILWAUKEE      CLEAR     25  15  66 W16G23    29.96R WCI  12
MADISON        CLOUDY    21  14  74 W8        29.98R WCI  11
GREEN BAY      CLOUDY    25  17  72 W15G23    29.86R WCI  13
EAU CLAIRE     FLURRIES  17  10  74 SW14G31   29.89R WCI   3
BLACK RVR FLS  PTSUNNY   18  10  73 W8        29.93R WCI   7
MEDFORD        LGT SNOW  15  10  81 SW17G25   29.79R WCI  -1
WAUSAU         FLURRIES  18  12  77 W18G24    29.81R WCI   2
WIS RAPIDS     CLEAR     18  12  77 W10       29.88S WCI   6
MARSHFIELD     CLOUDY    17  10  74 W20G28    29.83R WCI   1
RICE LAKE      FLURRIES  18  11  75 SW17G26   29.84R WCI   3
$$

...NORTHEAST IOWA...


CITY           SKY/WX    TMP DP  RH WIND       PRES   REMARKS
WATERLOO       PTCLDY    17  10  74 W20G25    30.10R WCI   1
DUBUQUE        FLURRIES  19  13  77 W17G25    30.04S WCI   4
DECORAH        CLOUDY    14  10  85 W13G21    30.01R WCI   0
MASON CITY     CLEAR     13   7  77 W21       30.06R WCI  -5
CHARLES CITY   CLOUDY    16   9  73 W16       30.06R WCI   0
OELWEIN        MOCLDY    16  12  86 W14       30.07R WCI   1
$$

...ELSEWHERE IN IOWA...


CITY           SKY/WX    TMP DP  RH WIND       PRES   REMARKS
DES MOINES     MOCLDY    20  10  65 NW10      30.16R WCI   9
IOWA CITY      MOCLDY    23  14  68 NW13      30.14R WCI  11
FORT DODGE     CLOUDY    14   7  73 W13       30.14R WCI   0
MARSHALLTOWN   CLOUDY    18  12  77 W15       30.12R WCI   4
CEDAR RAPIDS   MOCLDY    19  15  84 W17       30.10R WCI   4
$$

...NORTHERN ILLINOIS...


CITY           SKY/WX    TMP DP  RH WIND       PRES   REMARKS
CHICAGO-OHARE  MOCLDY    25  17  72 W18       30.03R WCI  11
CHICAGO-MIDWAY CLOUDY    27  17  66 W15       30.05R WCI  15
MOLINE         CLOUDY    25  14  63 W15G26    30.10S WCI  13
ROCKFORD       CLOUDY    23  15  71 W16G22    30.06R WCI  10
PEORIA         CLOUDY    28  16  60 W10G18    30.13R WCI  19
$$

NOTE: "FAIR" INDICATES FEW OR NO CLOUDS BELOW 12,000 FEET WITH NO
SIGNIFICANT WEATHER AND/OR OBSTRUCTIONS TO VISIBILITY. WIND
SPEEDS ARE IN MILES-PER-HOUR.




USA.gov is the U.S. government's official web portal to all federal, state and local government web resources and services.